CAPE
0 0 0 0 0 0 0 0 0 0 0 0 0 0 0 0 0 0 968 1152 1274 1220 1479 1213 2285 2393 2378 2392 2252 1906 1802 1975 1905 1579 1437 865 321 196 129 126 57 28 6 1 379 198 153 57 12
0 0 0 0 0 0 0 0 0 0 0 0 0 0 0 0 92 178 958 281 1116 1212 1622 1100 2183 2198 2277 2192 2203 2153 2074 1865 1926 1802 1275 662 385 352 353 231 200 440 400 309 222 81 6 5 4
0 0 0 0 0 0 0 0 0 0 0 0 0 0 0 0 0 0 13 167 1109 1386 1740 1257 2112 2081 2009 2051 2074 1997 1991 1907 1636 1494 1434 899 713 900 403 536 722 801 501 353 95 8 26 2 0
0 0 0 0 0 0 0 0 0 0 0 0 0 0 0 0 0 0 0 271 1253 1392 1639 1576 1973 2009 1892 2107 1975 2014 1934 1851 1680 1499 1493 1355 1235 1060 764 973 894 843 497 264 46 35 0 0 0
0 0 0 0 0 0 0 0 0 0 0 0 0 0 0 0 0 0 23 205 1369 1387 1415 1534 1916 1693 1622 1850 1793 1771 1740 1875 1815 1534 1359 1202 1079 1003 806 829 964 608 513 404 154 0 0 0 0
0 0 0 0 0 0 0 0 0 0 0 0 0 0 0 0 0 0 2 60 548 1412 1349 1251 1378 1529 1550 1591 1519 1792 1815 1580 1627 1554 1487 1067 1136 1248 1206 844 656 585 596 300 179 0 0 0 0
0 0 0 0 0 0 0 0 0 0 0 0 0 0 0 0 0 0 0 30 160 548 1294 1149 1184 1032 1320 1343 1472 1392 1668 1630 1569 1434 1331 1178 910 856 1131 619 704 330 294 363 213 0 0 0 0
0 0 0 0 0 0 0 0 0 0 0 0 0 0 0 0 0 0 0 0 8 138 187 807 936 967 916 693 981 1074 1222 1055 1230 1094 998 987 769 565 598 357 469 499 362 180 216 9 0 1 1
0 0 0 0 0 0 0 0 0 0 0 0 0 0 0 0 0 0 0 0 0 0 71 49 427 809 818 655 483 725 545 786 1030 1047 963 849 872 830 612 327 288 467 399 350 164 63 124 46 0
0 0 0 0 0 0 0 0 0 0 0 0 0 0 0 0 0 0 0 0 0 0 0 5 45 72 564 667 656 465 497 400 175 505 872 922 681 685 614 349 73 235 150 88 58 57 142 6 0
0 0 0 0 0 0 0 0 0 0 0 0 0 0 0 0 0 0 0 0 0 0 0 0 0 27 18 555 809 811 1369 886 347 230 658 745 678 674 858 952 407 249 3 0 7 4 0 0 0
0 0 0 0 0 0 0 0 0 0 0 0 0 0 0 0 0 0 0 0 0 0 0 0 0 30 71 307 352 659 727 366 332 576 473 778 814 825 872 845 693 498 76 3 0 0 0 0 0
0 0 0 0 0 0 0 0 0 0 0 0 0 0 0 0 0 0 0 0 0 0 0 0 0 0 83 172 193 236 338 445 535 550 497 692 683 737 789 881 814 617 292 113 3 0 0 1 0
0 0 0 0 0 0 0 0 0 0 0 0 0 0 0 0 0 0 0 0 0 0 0 0 0 0 3 90 238 157 138 315 492 585 789 665 707 851 792 787 794 627 314 289 58 0 1 0 0
0 0 0 0 0 0 0 0 0 0 0 0 0 0 0 0 0 0 0 0 0 0 0 0 0 0 0 17 155 218 47 18 194 362 720 616 609 634 503 664 682 593 555 256 125 36 9 2 1
0 0 0 0 0 0 0 0 0 0 0 0 0 0 0 0 0 0 0 0 0 0 0 0 0 0 0 2 81 198 107 2 17 38 34 93 382 552 484 126 413 529 523 429 233 70 99 10 2
0 0 0 0 0 0 0 0 0 0 0 0 0 0 0 0 0 0 0 0 0 0 0 0 0 0 0 0 94 88 140 109 37 22 52 59 37 77 230 284 252 360 426 338 264 132 21 43 9
0 0 0 0 0 0 0 0 0 0 0 0 0 0 0 0 0 0 0 0 0 0 0 0 0 0 0 0 55 99 46 115 150 64 27 50 64 19 48 112 196 237 428 403 272 227 129 55 63
0 0 0 0 0 0 0 0 0 0 0 0 0 0 0 0 0 0 0 0 0 0 0 0 0 0 0 0 2 19 32 209 236 133 45 29 58 74 71 110 178 258 319 266 176 187 191 3 62
0 0 0 0 0 0 0 0 0 0 0 0 0 0 0 0 0 0 0 0 0 0 0 0 0 0 0 0 0 19 92 181 216 215 103 76 48 70 97 110 104 206 146 178 144 165 82 5 4
0 0 0 0 0 0 0 0 0 0 0 0 0 0 0 0 0 0 0 0 0 0 0 0 0 0 0 0 0 106 222 174 180 148 165 95 52 109 114 97 127 218 79 49 34 44 9 3 5
0 0 0 0 5 5 3 6 0 0 0 0 0 0 1 5 3 14 1 0 0 0 0 0 0 0 0 0 6 50 106 196 247 288 250 131 152 103 102 137 81 51 27 29 22 50 77 14 4
0 0 0 5 6 11 2 17 0 0 4 5 3 1 7 15 8 3 11 5 0 0 0 0 0 0 0 0 21 126 179 170 281 281 157 259 195 155 190 175 66 22 21 27 84 18 1 2 7
0 0 5 6 5 5 0 8 17 8 12 6 4 4 5 7 9 4 3 4 20 0 17 0 0 0 0 2 68 110 164 139 207 182 249 277 128 141 189 167 138 97 15 13 14 11 8 16 8
1 5 8 6 9 10 0 15 11 2 8 10 14 15 8 13 6 7 12 3 27 185 266 217 167 54 83 118 118 119 261 171 145 156 187 177 118 86 99 160 92 8 3 22 24 20 2 6 30
9 15 19 5 14 21 5 12 60 4 6 11 14 11 9 11 12 9 5 8 7 45 261 272 219 233 282 178 135 179 269 160 169 168 274 215 130 120 172 154 89 59 10 0 3 3 16 2 19
11 32 9 12 6 14 12 16 8 5 6 6 10 12 10 2 12 11 6 9 5 8 5 107 249 220 245 275 317 271 104 259 199 161 251 249 259 207 175 141 53 15 5 2 4 5 1 7 18
8 6 53 30 14 7 6 6 20 3 12 10 13 13 8 0 1 4 8 6 6 6 6 6 7 6 3 1 2 2 2 2 70 105 94 56 15 3 0 1 1 1 2 4 2 1 1 3 11
20 30 15 27 31 10 6 4 12 14 12 10 5 11 1 0 0 1 2 5 4 2 3 3 4 4 4 3 4 2 2 2 1 1 1 1 0 1 0 0 1 0 0 0 1 1 1 3 5
8 7 8 8 11 7 4 1 1 0 2 0 0 1 0 0 0 0 0 0 1 2 2 1 2 2 2 2 3 1 3 1 0 1 1 0 0 0 0 0 0 0 0 0 0 0 0 0 0
CIN
-0 -0 -0 -0 -0 -0 -0 -0 -0 -0 -0 -0 -0 -0 -0 -0 -0 -0 -1 -2 -8 -24 -15 -22 -0 -0 -0 -0 -0 -1 -1 -1 -0 -0 -3 -0 -45 -101 -136 -146 -216 -291 -87 -21 -87 -140 -157 -263 -324
-0 -0 -0 -0 -0 -0 -0 -0 -0 -0 -0 -0 -0 -0 -0 -0 -231 -199 -0 -171 -18 -4 -0 -16 -3 -0 -0 -1 -0 -0 -1 -1 -0 -1 -4 -0 -15 -27 -43 -72 -115 -45 -61 -90 -117 -196 -0 -1 -0
-0 -0 -0 -0 -0 -0 -0 -0 -0 -0 -0 -0 -0 -0 -0 -0 -0 -0 -121 -280 -14 -1 -0 -1 -3 -0 -1 -0 -1 -2 -2 -1 -1 -2 -2 -1 -0 -0 -19 -17 -6 -6 -29 -58 -171 -1 -238 -0 -0
-0 -0 -0 -0 -0 -0 -0 -0 -0 -0 -0 -0 -0 -0 -0 -0 -0 -0 -0 -188 -6 -0 -0 -8 -2 -0 -0 -0 -1 -1 -1 -1 -0 -1 -0 -1 -0 -1 -0 -0 -1 -0 -25 -57 -189 -230 -0 -0 -0
-0 -0 -0 -0 -0 -0 -0 -0 -0 -0 -0 -0 -0 -0 -0 -0 -0 -0 -201 -175 -3 -0 -0 -0 -1 -2 -1 -1 -1 -1 -2 -1 -0 -0 -0 -1 -0 -1 -3 -6 -1 -5 -11 -30 -95 -0 -0 -0 -0
-0 -0 -0 -0 -0 -0 -0 -0 -0 -0 -0 -0 -0 -0 -0 -0 -0 -0 -80 -191 -55 -0 -0 -0 -5 -5 -2 -1 -2 -1 -0 -2 -1 -0 -0 -2 -0 -0 -1 -4 -5 -3 -1 -31 -72 -0 -0 -0 -0
-0 -0 -0 -0 -0 -0 -0 -0 -0 -0 -0 -0 -0 -0 -0 -0 -0 -0 -0 -19 -85 -28 -0 -0 -0 -3 -11 -7 -3 -2 -1 -1 -2 -2 -2 -2 -6 -4 -2 -13 -3 -8 -8 -6 -42 -0 -0 -0 -0
-0 -0 -0 -0 -0 -0 -0 -0 -0 -0 -0 -0 -0 -0 -0 -0 -0 -0 -0 -0 -25 -77 -61 -1 -0 -0 -0 -0 -11 -13 -6 -8 -5 -7 -4 -4 -5 -5 -13 -25 -13 -1 -0 -36 -45 -21 -0 -0 -0
-0 -0 -0 -0 -0 -0 -0 -0 -0 -0 -0 -0 -0 -0 -0 -0 -0 -0 -0 -0 -0 -0 -72 -129 -14 -5 -0 -0 -3 -23 -42 -23 -14 -5 -7 -12 -0 -0 -3 -3 -14 -3 -1 -0 -52 -106 -88 -5 -0
-0 -0 -0 -0 -0 -0 -0 -0 -0 -0 -0 -0 -0 -0 -0 -0 -0 -0 -0 -0 -0 -0 -0 -39 -107 -55 -10 -5 -0 -4 -3 -12 -32 -2 -0 -0 -0 -0 -0 -5 -52 -15 -13 -38 -30 -10 -88 -8 -0
-0 -0 -0 -0 -0 -0 -0 -0 -0 -0 -0 -0 -0 -0 -0 -0 -0 -0 -0 -0 -0 -0 -0 -0 -3 -76 -99 -13 -1 -0 -0 -0 -2 -16 -0 -0 -0 -0 -0 -0 -1 -0 -31 -0 -18 -2 -0 -0 -0
-0 -0 -0 -0 -0 -0 -0 -0 -0 -0 -0 -0 -0 -0 -0 -0 -0 -0 -0 -0 -0 -0 -0 -0 -0 -30 -77 -21 -17 -0 -0 -9 -9 -0 -0 -0 -0 -0 -0 -0 -0 -0 -32 -69 -0 -0 -0 -0 -0
-0 -0 -0 -0 -0 -0 -0 -0 -0 -0 -0 -0 -0 -0 -0 -0 -0 -0 -0 -0 -0 -0 -0 -0 -0 -0 -40 -24 -21 -12 -6 -17 -4 -0 -0 -0 -0 -0 -0 -0 -0 -0 -0 -19 -46 -0 -0 -0 -0
-0 -0 -0 -0 -0 -0 -0 -0 -0 -0 -0 -0 -0 -0 -0 -0 -0 -0 -0 -0 -0 -0 -0 -0 -0 -0 -0 -35 -18 -15 -18 -16 -10 -0 -0 -0 -0 -0 -0 -0 -0 -0 -7 -5 -18 -5 -36 -0 -0
-0 -0 -0 -0 -0 -0 -0 -0 -0 -0 -0 -0 -0 -0 -0 -0 -0 -0 -0 -0 -0 -0 -0 -0 -0 -0 -0 -62 -28 -12 -41 -63 -19 -11 -0 -0 -0 -0 -0 -0 -0 -1 -0 -32 -67 -18 -71 -76 -0
-0 -0 -0 -0 -0 -0 -0 -0 -0 -0 -0 -0 -0 -0 -0 -0 -0 -0 -0 -0 -0 -0 -0 -0 -0 -0 -0 -0 -45 -18 -27 -8 -52 -60 -65 -23 -2 -0 -0 -25 -0 -0 -0 -0 -46 -26 -5 -50 -30
-0 -0 -0 -0 -0 -0 -0 -0 -0 -0 -0 -0 -0 -0 -0 -0 -0 -0 -0 -0 -0 -0 -0 -0 -0 -0 -0 -0 -23 -29 -25 -25 -39 -61 -68 -62 -68 -33 -4 -4 -4 -0 -0 -3 -2 -6 -59 -21 -28
-0 -0 -0 -0 -0 -0 -0 -0 -0 -0 -0 -0 -0 -0 -0 -0 -0 -0 -0 -0 -0 -0 -0 -0 -0 -0 -0 -0 -16 -12 -29 -23 -13 -42 -88 -73 -67 -99 -54 -27 -14 -2 -0 -1 -7 -0 -4 -9 -17
-0 -0 -0 -0 -0 -0 -0 -0 -0 -0 -0 -0 -0 -0 -0 -0 -0 -0 -0 -0 -0 -0 -0 -0 -0 -0 -0 -0 -0 -35 -27 -12 -12 -36 -75 -116 -87 -58 -48 -39 -23 -12 -1 -2 -1 -0 -0 -0 -0
-0 -0 -0 -0 -0 -0 -0 -0 -0 -0 -0 -0 -0 -0 -0 -0 -0 -0 -0 -0 -0 -0 -0 -0 -0 -0 -0 -0 -0 -15 -14 -16 -20 -34 -75 -111 -117 -73 -50 -50 -48 -16 -26 -18 -17 -0 -5 -28 -21
-0 -0 -0 -0 -0 -0 -0 -0 -0 -0 -0 -0 -0 -0 -0 -0 -0 -0 -0 -0 -0 -0 -0 -0 -0 -0 -0 -0 -0 -10 -3 -1 -12 -45 -65 -86 -98 -66 -52 -48 -27 -7 -20 -22 -10 -7 -9 -2 -11
-0 -0 -0 -0 -0 -0 -0 -0 -0 -0 -0 -0 -0 -0 -6 -0 -0 -0 -0 -0 -0 -0 -0 -0 -0 -0 -0 -0 -1 -9 -2 -5 -12 -23 -36 -88 -59 -53 -46 -32 -25 -27 -0 -1 -6 -0 -0 -10 -2
-0 -0 -0 -0 -0 -1 -0 -0 -0 -0 -0 -0 -0 -0 -0 -0 -0 -0 -0 -0 -0 -0 -0 -0 -0 -0 -0 -0 -3 -0 -35 -27 -1 -7 -37 -14 -23 -34 -21 -17 -26 -0 -5 -0 -0 -3 -27 -1 -2
-0 -0 -0 -0 -0 -0 -0 -0 -0 -0 -0 -0 -0 -0 -0 -0 -0 -0 -0 -0 -17 -0 -20 -0 -0 -0 -0 -0 -0 -0 -3 -23 -13 -28 -11 -10 -40 -25 -10 -24 -22 -2 -29 -4 -3 -11 -14 -20 -9
-0 -0 -0 -0 -0 -0 -0 -0 -1 -0 -0 -0 -0 -0 -0 -0 -0 -0 -0 -0 -10 -3 -13 -24 -25 -35 -20 -10 -5 -17 -20 -33 -38 -38 -27 -21 -27 -42 -16 -0 -7 -88 -40 -2 -1 -1 -1 -0 -7
-0 -0 -0 -0 -0 -0 -0 -0 -0 -0 -0 -0 -0 -0 -0 -0 -0 -0 -0 -0 -0 -50 -18 -23 -40 -27 -10 -13 -35 -34 -17 -16 -16 -24 -9 -24 -28 -13 -0 -0 -4 -16 -20 -0 -1 -1 -0 -11 -14
-0 -0 -0 -0 -0 -0 -0 -0 -0 -0 -0 -0 -0 -0 -0 -0 -0 -0 -0 -0 -0 -0 -80 -77 -27 -6 -3 -13 -17 -9 -0 -10 -26 -26 -31 -8 -22 -0 -0 -0 -21 -33 -26 -0 -0 -0 -0 -2 -24
-0 -0 -0 -0 -0 -0 -0 -0 -0 -0 -0 -0 -0 -0 -0 -0 -0 -0 -0 -0 -0 -0 -0 -0 -0 -0 -0 -0 -0 -0 -0 -9 -15 -0 -0 -1 -24 -66 -0 -0 -0 -0 -3 -20 -0 -0 -19 -19 -32
-0 -0 -0 -0 -0 -0 -0 -0 -0 -0 -0 -0 -0 -0 -0 -0 -0 -0 -0 -0 -0 -0 -0 -0 -0 -0 -0 -0 -0 -0 -0 -0 -0 -0 -0 -0 -0 -0 -0 -0 -0 -0 -0 -0 -0 -0 -11 -5 -8
-0 -0 -0 -0 -0 -0 -0 -0 -0 -0 -0 -0 -0 -0 -0 -0 -0 -0 -0 -0 -0 -0 -0 -0 -0 -0 -0 -0 -0 -0 -0 -0 -0 -0 -0 -0 -0 -0 -0 -0 -0 -0 -0 -0 -0 -0 -0 -0 -0
Wind_Speed
2 2 2 4 6 5 6 4 1 6 7 3 1 4 3 7 4 4 6 5 11 5 10 15 14 13 13 12 12 11 11 10 11 11 13 12 12 13 13 12 13 11 10 10 12 12 13 13 12
2 4 3 3 5 7 5 4 7 4 3 1 2 4 4 4 5 4 2 15 7 4 9 13 13 14 13 13 11 11 11 10 10 11 11 11 12 13 13 14 14 13 12 9 11 10 10 11 9
2 2 5 5 4 6 1 3 5 4 3 1 4 1 2 4 5 8 11 14 6 7 9 9 11 13 13 12 12 12 11 10 8 10 11 11 13 13 14 13 11 12 12 10 10 10 9 8 8
3 4 3 6 8 2 2 6 5 6 3 3 3 5 5 5 9 10 13 10 5 6 9 11 9 11 12 12 12 12 13 12 10 9 11 12 12 12 12 10 12 12 12 11 10 10 8 6 8
1 2 4 5 6 2 3 5 5 5 3 1 2 3 2 4 8 12 9 9 6 5 8 10 8 8 10 11 11 10 9 11 12 10 9 12 12 10 11 11 11 13 12 11 12 10 7 6 7
3 1 5 7 6 4 3 3 4 6 3 1 3 2 3 4 9 13 11 8 8 3 6 8 9 8 8 10 11 10 10 9 9 9 10 11 10 9 12 14 12 13 12 12 11 9 7 5 7
2 3 3 1 3 5 3 1 8 6 7 5 2 4 5 6 7 10 11 9 5 6 5 7 8 10 7 7 8 9 10 10 9 8 8 9 8 7 12 14 14 14 12 12 11 9 8 6 7
1 1 4 4 3 4 3 2 2 4 4 4 2 6 5 5 8 10 9 8 8 4 4 4 7 8 9 10 8 8 8 9 10 9 7 6 6 7 11 11 12 13 12 11 10 9 8 6 4
1 3 5 1 3 5 2 2 2 3 7 3 4 7 4 7 9 9 9 8 7 6 4 4 3 5 8 9 8 9 9 7 7 8 7 8 9 11 12 11 12 11 10 9 10 9 8 5 3
3 4 3 2 2 1 1 4 3 4 5 9 11 12 13 11 10 10 11 11 9 8 7 5 4 5 7 7 8 10 9 8 10 10 11 10 10 9 10 10 10 10 9 8 8 8 7 7 6
2 3 4 2 1 3 3 7 3 6 10 15 13 11 10 11 13 15 14 12 12 11 9 7 6 6 6 7 6 6 5 6 7 11 10 10 7 8 8 6 8 8 8 8 9 9 8 10 6
4 1 1 2 1 3 5 6 8 12 15 11 12 14 15 17 16 15 15 15 14 12 12 10 8 8 9 7 6 7 6 6 7 9 12 9 7 8 8 7 9 9 7 8 8 7 9 9 8
4 4 3 4 5 8 11 16 15 18 18 17 16 15 17 17 17 15 14 15 14 14 14 11 9 9 8 9 7 7 6 6 8 9 10 10 9 9 9 8 7 8 8 8 8 8 7 7 9
2 2 5 4 4 6 8 10 3 7 5 9 8 12 14 15 17 14 14 15 15 14 15 12 10 9 9 10 10 8 7 7 6 7 8 11 8 8 9 10 10 10 9 9 9 8 8 8 8
1 3 3 3 1 2 3 12 11 14 8 11 11 12 14 15 16 17 17 16 15 13 14 14 12 11 11 12 11 9 7 7 7 6 10 10 8 8 10 9 9 10 10 10 8 9 7 8 6
1 2 3 3 2 2 3 8 2 2 8 14 20 18 18 20 19 19 17 17 17 15 15 14 12 12 12 12 11 9 8 8 7 7 5 8 9 10 9 4 7 7 7 9 9 8 9 7 7
1 2 2 4 1 2 5 9 7 13 20 21 20 19 19 19 18 17 17 16 16 16 17 15 14 14 13 11 9 11 11 9 8 7 7 7 9 10 9 9 8 10 7 9 10 8 6 8 7
3 2 3 6 0 8 14 21 17 18 19 20 19 19 18 18 17 16 16 16 16 16 15 15 13 14 14 9 9 6 7 9 9 9 9 11 8 10 10 9 11 10 8 9 8 13 10 7 9
2 2 6 9 7 11 11 18 19 19 18 16 13 13 14 14 14 14 14 13 14 15 15 15 15 15 11 10 9 8 9 10 10 9 12 12 11 11 11 9 11 11 9 11 11 10 14 6 7
0 5 6 9 4 7 15 24 20 12 7 9 12 13 15 17 17 16 12 11 12 13 13 14 15 14 13 10 9 9 10 10 10 9 10 12 13 12 11 11 11 13 8 11 12 12 8 6 8
3 6 4 6 12 12 13 11 2 1 7 8 13 14 14 15 17 16 15 12 11 12 13 14 15 15 14 14 10 8 6 7 8 10 9 10 12 12 13 14 12 11 8 7 10 12 13 8 8
4 2 6 8 10 5 8 9 7 7 9 18 19 18 16 15 15 14 15 15 12 13 13 13 15 15 14 14 12 14 11 11 9 9 8 8 12 12 12 13 11 9 7 9 9 10 10 9 11
2 2 8 11 12 10 5 6 4 10 12 17 21 20 12 13 15 16 17 15 15 12 10 11 13 15 14 14 15 12 12 8 8 6 9 10 9 10 11 11 9 9 7 8 10 10 9 7 6
9 10 9 2 2 4 6 6 2 6 11 12 16 16 17 17 17 17 15 17 12 10 9 9 12 13 14 14 16 15 13 11 10 7 7 6 6 7 11 12 12 11 9 9 8 9 10 9 8
4 5 3 2 3 4 6 6 3 11 12 12 14 15 15 14 14 19 17 13 14 9 10 9 11 13 14 16 15 15 14 14 14 13 9 9 5 6 9 9 11 7 9 11 11 12 7 8 9
4 4 3 5 3 6 4 5 2 11 9 11 11 14 15 14 15 15 14 7 8 8 9 6 9 14 13 13 15 14 16 9 10 11 9 8 8 8 11 10 11 12 11 9 8 5 5 4 6
3 5 3 4 6 5 1 2 4 13 10 13 14 13 15 18 17 14 14 10 12 12 11 8 0 3 6 14 13 7 3 11 11 11 11 8 10 7 9 9 7 7 7 8 8 6 8 7 5
6 2 4 4 4 4 3 1 5 9 11 12 11 13 13 13 16 14 12 13 12 12 13 14 13 12 12 13 9 8 9 8 3 2 2 4 4 6 5 4 4 4 4 5 6 5 5 5 3
5 3 5 3 3 4 4 2 4 6 7 10 8 11 10 10 11 12 13 13 15 16 16 14 16 14 14 12 8 12 10 8 13 11 9 10 10 9 10 9 9 9 8 7 3 3 2 5 5
3 4 4 3 3 3 4 2 5 5 7 7 10 8 7 7 8 10 12 12 14 12 11 14 14 12 13 11 8 13 10 10 12 11 11 9 11 10 9 8 9 9 9 8 8 8 7 6 5
Wind_Direction
247 192 197 198 198 239 222 198 49 156 183 162 323 265 356 349 332 29 58 27 350 208 175 172 161 164 160 153 150 154 158 157 154 164 153 166 163 163 161 163 162 153 155 147 123 125 123 113 113
201 171 195 150 228 207 167 130 193 113 89 318 210 229 228 115 38 4 204 350 327 191 176 182 163 170 168 159 155 155 158 160 162 157 154 171 170 168 171 171 172 160 144 145 126 128 131 110 123
190 260 189 200 226 222 117 159 130 106 51 162 172 306 357 25 358 346 351 329 283 193 180 172 155 174 171 166 166 166 166 164 171 162 165 179 182 182 176 180 173 160 145 138 128 144 127 136 139
200 167 146 233 206 180 62 124 145 145 115 58 14 146 110 45 339 337 336 324 249 193 191 135 164 177 175 169 174 174 174 171 184 188 179 180 192 196 182 168 152 146 143 134 145 133 148 162 169
89 201 193 220 210 129 156 122 157 152 139 158 0 116 94 48 354 359 354 345 292 196 195 171 166 177 183 180 183 186 188 183 183 201 190 186 199 200 187 168 143 141 143 148 141 150 163 158 167
134 260 199 214 165 164 190 168 211 227 197 175 226 233 128 101 18 3 360 8 335 234 209 191 176 184 182 189 193 192 196 201 196 205 199 200 201 203 185 171 146 148 149 155 156 164 173 172 156
168 200 201 208 156 177 143 295 230 253 248 231 349 245 134 181 23 358 9 7 19 2 271 213 199 192 184 188 192 201 206 204 206 212 209 208 206 190 177 163 153 156 162 165 171 177 182 187 182
76 259 185 208 201 126 99 169 327 260 222 339 279 237 196 102 0 342 350 14 10 29 5 343 230 211 209 203 202 202 216 211 200 214 215 201 190 186 181 162 162 163 170 178 176 188 191 187 197
214 220 223 240 205 103 116 188 119 303 276 256 238 262 318 323 326 330 340 344 358 7 359 333 259 277 213 228 195 204 217 219 208 203 207 199 212 189 174 192 155 170 176 180 182 190 188 172 167
201 218 196 16 0 41 310 300 328 279 231 246 253 258 268 294 304 316 319 314 315 321 337 314 257 254 258 211 224 221 213 215 216 211 207 218 217 203 194 182 168 173 176 180 188 190 178 192 205
142 232 147 152 298 334 299 271 254 268 261 251 267 281 292 288 297 299 295 287 290 295 294 293 272 228 230 231 225 219 200 207 217 218 210 215 217 212 198 183 182 187 185 196 193 187 208 212 227
168 198 179 168 147 297 281 299 259 246 251 292 280 282 283 283 286 283 283 281 281 280 276 279 276 242 224 228 224 219 210 209 218 212 213 207 202 212 211 195 192 193 176 214 204 207 212 217 223
204 170 229 240 270 274 278 267 271 268 263 270 271 272 269 269 271 271 269 273 272 267 266 259 260 255 242 228 222 215 214 212 211 221 213 216 210 205 202 203 197 197 193 199 208 215 214 220 230
121 239 269 281 264 260 271 272 330 257 280 275 266 264 265 265 266 271 267 266 264 260 262 260 249 246 237 233 233 223 209 205 210 214 220 216 223 216 207 213 202 202 202 195 206 209 212 219 225
113 264 257 211 186 240 272 262 235 260 283 289 282 280 276 270 262 261 277 265 260 263 262 262 255 245 234 233 232 226 214 202 195 208 204 205 218 232 209 220 223 216 209 201 203 212 211 212 225
215 247 248 150 283 102 241 261 209 289 290 284 293 288 278 277 270 267 272 258 254 256 254 257 251 245 236 229 224 222 218 213 198 200 208 212 208 209 218 228 229 224 229 215 199 204 213 208 206
124 242 267 287 239 250 231 288 278 293 294 292 287 285 282 279 279 273 266 257 251 252 251 250 245 242 235 237 224 220 220 223 212 204 216 225 228 218 219 221 232 219 214 217 212 210 191 209 213
143 221 258 276 88 269 277 272 280 280 284 285 292 291 287 283 285 289 279 263 254 254 252 248 243 236 237 232 226 218 219 222 228 221 219 224 232 236 232 234 227 231 213 215 211 217 212 215 229
91 297 291 280 295 289 277 284 287 286 286 291 299 301 300 295 302 294 284 266 255 250 245 239 239 231 230 225 219 219 212 219 222 227 234 229 233 233 235 234 240 229 218 213 209 208 214 210 213
84 295 296 284 280 284 300 297 300 295 291 320 312 311 309 303 300 295 284 264 247 244 237 236 236 235 227 227 222 225 222 229 226 222 226 228 232 231 232 233 236 232 225 219 213 206 198 200 194
244 269 316 298 319 282 303 285 8 69 315 326 329 320 310 309 309 300 289 266 246 234 234 235 234 228 231 227 224 219 226 228 216 221 224 225 231 232 230 234 236 236 218 213 207 207 207 204 196
298 221 279 303 322 309 359 295 332 346 341 347 336 335 330 330 326 311 293 280 258 248 238 244 242 225 226 222 223 213 216 215 218 223 217 224 235 237 236 237 234 224 218 220 201 205 215 208 205
341 293 288 289 285 307 264 245 285 359 342 336 331 318 329 340 334 324 308 287 268 252 245 238 231 219 218 213 214 214 217 233 233 223 234 233 231 236 235 229 222 220 217 225 214 199 203 214 212
306 302 295 285 271 259 230 219 125 5 333 326 331 343 341 333 335 323 311 307 268 248 242 233 225 216 211 212 209 216 209 213 224 217 235 230 229 235 236 226 229 223 216 220 213 202 203 201 209
238 311 304 249 220 274 157 217 330 356 347 330 337 339 335 328 336 332 322 301 286 255 241 231 225 220 214 207 205 211 212 213 220 217 214 219 216 218 231 227 227 207 215 222 209 207 194 205 214
255 285 309 293 275 313 183 248 76 2 4 343 343 348 344 351 352 334 334 339 1 309 261 232 227 228 197 195 205 205 213 217 215 215 215 218 214 225 241 223 218 217 222 216 197 171 193 194 222
130 214 77 261 230 252 217 126 194 360 355 342 342 351 352 355 349 352 353 19 26 33 47 50 235 282 227 214 216 190 223 226 215 216 228 224 226 237 237 218 197 197 194 189 194 196 201 201 197
226 33 219 196 273 288 182 104 319 326 325 321 341 358 359 354 351 5 10 30 37 43 43 53 54 63 60 57 63 67 47 12 122 178 199 106 71 82 44 16 127 140 152 166 164 160 161 174 181
178 214 209 264 255 297 309 98 212 284 307 308 333 356 4 1 359 6 14 29 39 41 43 42 51 53 55 51 53 71 54 24 73 75 69 69 67 53 62 56 50 56 55 38 71 81 143 197 201
233 234 241 265 154 242 296 246 210 228 255 278 306 347 5 17 20 28 38 34 37 39 45 44 36 34 43 40 27 54 59 52 64 66 61 65 72 54 52 63 63 53 55 48 55 58 52 43 43